Regional Weather Roundup
Issued by NWS

Home | Current Version | Previous Version | Text Only | Print | Product List | Glossary Off
Versions: 1 2 3 4 5 6 7 8 9 10 11 12 13 14 15 16 17 18 19 20 21 22 23 24 25 26 27 28 29 30 31 32 33 34 35 36 37 38 39 40 41 42 43 44 45 46 47 48 49 50

000
ASUS43 KIND 180909
RWRIN

WEATHER ROUNDUP FOR INDIANA
NATIONAL WEATHER SERVICE INDIANAPOLIS IN
500 AM EDT WED OCT 18 2017

NOTE: "FAIR" INDICATES FEW OR NO CLOUDS BELOW 12,000 FEET WITH NO
SIGNIFICANT WEATHER AND/OR OBSTRUCTIONS TO VISIBILITY.

* - STATION DOES NOT REPORT WEATHER SUCH AS PRECIPITATION OR FOG.

+ - STATION NOT QUALITY CONTROLLED BY THE NATIONAL WEATHER SERVICE.
    USE DATA WITH CAUTION...ESPECIALLY DEWPOINT AND RELATIVE
    HUMIDITY OBSERVATIONS.

INZ001>003-010>013-019-020-181000-
NORTHWEST INDIANA

CITY           SKY/WX    TMP DP  RH WIND       PRES   REMARKS
GARY /AIRPORT/ CLEAR     53  38  58 S6        30.18S
KNOX *+        CLEAR     45  39  81 S5        30.21R
LA PORTE +     CLEAR     44  39  85 CALM      30.21R
MICHIGAN CITY+ CLEAR     50  37  62 S6        30.20R
MONTICELLO +   CLEAR     47  39  74 S5        30.22R
RENSSELAER +   CLEAR     43  36  75 S3        30.21S
VALPARAISO     CLEAR     48  40  73 S6        30.20S

$$

LMZ046-743>745-181000-
SOUTHERN LAKE MICHIGAN

STATION/POSITION TIME  TEMP    WIND        PRES    WAVE
                       AIR SEA DIR/SP/G            HT
                 (UTC) (F)     (DEG/KT/KT) (MB)    (FT)
BURNS HARBOR     0840   52     180/ 11/ 14 1022.4S
MICHIGAN CITY    0840   53     170/ 14/ 16   N/A
5NW MICH CITY    0900   54 58  200/ 12/ 14   N/A     2

$$

INZ004-005-014>016-021>024-181000-
NORTH CENTRAL INDIANA

CITY           SKY/WX    TMP DP  RH WIND       PRES   REMARKS
GOSHEN         CLEAR     47  38  71 S6        30.22R
LOGANSPORT +   CLEAR     41  36  81 CALM      30.24R
PERU/GRISSOM   CLEAR     44  39  81 S8        30.23R
SOUTH BEND     CLEAR     48  40  73 S5        30.21S
WARSAW +       CLEAR     45  37  76 CALM      30.23R

$$

INZ006>009-017-018-025>027-181000-
NORTHEAST INDIANA

CITY           SKY/WX    TMP DP  RH WIND       PRES   REMARKS
AUBURN +       CLEAR     45  37  76 S5        30.24S
FORT WAYNE     CLEAR     42  37  82 S3        30.25R
HUNTINGTON +   CLEAR     45  39  81 CALM      30.24S
KENDALLVILLE + CLEAR     47  40  76 SW6       30.23S

$$

INZ028-029-035-036-043>045-051>053-181000-
WEST CENTRAL INDIANA

CITY           SKY/WX    TMP DP  RH WIND       PRES   REMARKS
CRAWFORDSVL +  CLEAR     41  39  93 SE3       30.23
GREENCASTLE +  CLEAR     41  37  87 CALM      30.24S
LAFAYETTE      CLEAR     41  40  96 CALM      30.22S
TERRE HAUTE    CLEAR     41  38  89 CALM      30.24S

$$

INZ030>032-037>040-046>048-054>057-064-065-181000-
CENTRAL INDIANA

CITY           SKY/WX    TMP DP  RH WIND       PRES   REMARKS
CP ATTERBURY + CLEAR     37  36  93 CALM      30.26S
FISHERS *+     PTCLDY    41  41 100 SE3       30.26R
FRANKFORT +    PTCLDY    43  40  88 CALM      30.25S
GREENWOOD *+   CLEAR     46  43  91 CALM      30.25S
INDIANAPOLIS   CLEAR     46  41  82 SE5       30.25R
-EAGLE CREEK   CLEAR     42  39  89 CALM      30.24S
KOKOMO +       CLEAR     43  39  86 S7        30.25R
MARION +       CLEAR     41  37  87 S6        30.25S
MT COMFORT *+  PTCLDY    43  43 100 SE5       30.26S
SHELBYVILLE    CLEAR     41  36  82 SE5       30.25S
ZIONSVILLE +   PTCLDY    39  38  98 CALM      30.25S

$$

INZ033-034-041-042-049-050-058-059-181000-
EAST CENTRAL INDIANA

CITY           SKY/WX    TMP DP  RH WIND       PRES   REMARKS
MUNCIE         CLEAR     43  38  82 CALM      30.25S
RICHMOND +     CLEAR     37  37 100 SE3       30.28S

$$

INZ060-061-067>069-081>083-085>088-181000-
SOUTHWEST INDIANA

CITY           SKY/WX    TMP DP  RH WIND       PRES   REMARKS
EVANSVILLE     CLEAR     43  42  97 CALM      30.25S FOG
HUNTINGBURG +  CLEAR     42  42 100 CALM      30.26S
WASHINGTON +   CLEAR     39  37  94 CALM      30.25S

$$

INZ062-063-066-070>080-084-089>092-181000-
SOUTH CENTRAL AND SOUTHEAST INDIANA

CITY           SKY/WX    TMP DP  RH WIND       PRES   REMARKS
BEDFORD +      CLEAR     41  39  93 CALM      30.25
BLOOMINGTON    CLEAR     40  37  89 CALM      30.25S
MADISON *+     CLEAR     43  41  93 CALM      30.28S
NORTH VERNON + CLEAR     39  37  93 CALM      30.27
SEYMOUR +      CLEAR     39  39 100 CALM      30.27R

$$





USA.gov is the U.S. government's official web portal to all federal, state and local government web resources and services.